Location: Cucq
(50.4773°N, 1.6202°E)
Time: 10:40:10
(UTC+00:00)

Cosmos 1544 - Pass Details

Date: 07 August 2020
Orbit: 472 x 491 km, 82.5° (Epoch: 20 September)

Event Time Altitude Azimuth Distance (km) Brightness Sun altitude
Exits shadow 00:45:42 42° 295° (WNW) 704 3.9 -22.4°
Drops below altitude 10° 00:49:02 10° 358° (N) 1,684 6.8 -22.3°
Sets 00:51:14 0° 5° (N) 2,573 8.2 -22.2°
